Winfield, KS

10:07 PM CDT on October 23, 2017 (GMT -0500)
Strother

Weather History for KWLD - November, 2012

Change the Weather History Date:

Thursday, November 1, 2012

  Actual Average Record
Temperature  
Mean Temperature 59 °F -  
Max Temperature 77 °F 61 °F 82 °F (2016)
Min Temperature 41 °F 42 °F 28 °F (2006)
Degree Days  
Heating Degree Days 6    
Growing Degree Days 9 (Base 50)    
Moisture  
Dew Point 39 °F    
Average Humidity 56    
Maximum Humidity 76    
Minimum Humidity 28    
Precipitation  
Precipitation 0.00 in - - ()
Sea Level Pressure  
Sea Level Pressure 29.99 in    
Wind  
Wind Speed 1 mph (SSE)    
Max Wind Speed 9 mph    
Max Gust Speed -    
Visibility 7 miles    
Events      
Averages and records for this station are not official NWS values.
T = Trace of Precipitation, MM = Missing Value Source: NWS Daily Summary

Daily Weather History Graph

Daily Weather History Graph

Search for Another Location

Airport or City:

Trip Planner

Search our weather history database for the weather conditions in past years. The results will help you decide how hot, cold, wet, or windy it might be!

Date:

Astronomy

Nov. 01, 2012 Rise Set
Actual Time 7:53 AM CDT 6:29 PM CDT
Civil Twilight 7:26 AM CDT 6:56 PM CDT
Nautical Twilight 6:55 AM CDT 7:27 PM CDT
Astronomical Twilight 6:24 AM CDT 7:57 PM CDT
Moon 8:30 PM CDT (11/1) 10:23 AM CDT (11/1)
Length of Visible Light 11h 30m
Length of Day
10h 36m
Waning Gibbous, 93% of the Moon is Illuminated
Nov 1
Waning Gibbous
Nov 6
Last Quarter
Nov 13
New
Nov 20
First Quarter
Nov 28
Full

Hourly Weather History & Observations

Time (CDT) Temp. Dew Point Humidity Pressure Visibility Wind Dir Wind Speed Gust Speed Precip Events Conditions
12:54 AM 50.0 °F 36.0 °F 59% 30.04 in 9.0 mi Calm Calm - N/A   Clear
1:54 AM 48.0 °F 36.0 °F 63% 30.04 in 10.0 mi Calm Calm - N/A   Clear
2:54 AM 48.0 °F 35.1 °F 61% 30.03 in 10.0 mi East 4.6 mph - N/A   Clear
3:54 AM 46.9 °F 36.0 °F 66% 30.02 in 10.0 mi East 4.6 mph - N/A   Clear
5:54 AM 46.0 °F 36.0 °F 68% 30.02 in 9.0 mi Calm Calm - N/A   Clear
6:54 AM 45.0 °F 35.1 °F 68% 30.02 in 10.0 mi Calm Calm - N/A   Clear
7:54 AM 41.0 °F 34.0 °F 76% 30.03 in 6.0 mi Calm Calm - N/A   Haze
8:28 AM 42.8 °F 35.6 °F 76% 30.03 in 1.5 mi Calm Calm - N/A   Haze
8:43 AM 44.6 °F 37.4 °F 76% 30.03 in 3.0 mi Calm Calm - N/A   Haze
8:54 AM 46.9 °F 37.9 °F 71% 30.04 in 5.0 mi Calm Calm - N/A   Haze
9:16 AM 51.8 °F 39.2 °F 62% 30.04 in 2.0 mi Calm Calm - N/A   Haze
9:28 AM 51.8 °F 37.4 °F 58% 30.03 in 3.0 mi Calm Calm - N/A   Haze
10:54 AM 63.0 °F 41.0 °F 45% 30.03 in 9.0 mi SSW 6.9 mph - N/A   Clear
11:54 AM 70.0 °F 39.9 °F 33% 30.02 in 5.0 mi SW 9.2 mph - N/A   Haze
1:54 PM 75.0 °F 43.0 °F 32% 29.97 in 5.0 mi Variable 4.6 mph - N/A   Haze
2:54 PM 75.9 °F 42.1 °F 30% 29.94 in 6.0 mi Variable 3.5 mph - N/A   Haze
3:54 PM 77.0 °F 43.0 °F 30% 29.94 in 10.0 mi Calm Calm - N/A   Clear
4:54 PM 77.0 °F 41.0 °F 28% 29.92 in 10.0 mi Calm Calm - N/A   Clear
5:54 PM 73.0 °F 42.1 °F 33% 29.93 in 8.0 mi Calm Calm - N/A   Clear
6:54 PM 64.9 °F 44.1 °F 47% 29.92 in 6.0 mi Calm Calm - N/A   Haze
7:54 PM 57.0 °F 44.1 °F 62% 29.94 in 9.0 mi Calm Calm - N/A   Clear
8:54 PM 55.9 °F 43.0 °F 62% 29.94 in 10.0 mi Calm Calm - N/A   Clear
9:54 PM 54.0 °F 44.1 °F 69% 29.93 in 9.0 mi Calm Calm - N/A   Clear
10:54 PM 53.1 °F 42.1 °F 66% 29.94 in 10.0 mi Calm Calm - N/A   Clear
11:54 PM 55.9 °F 42.1 °F 60% 29.92 in 10.0 mi Calm Calm - N/A   Clear